Wind_Speed
11 11 10 10 11 11 10 9 9 10 10 11 12 13 15 17 18 17 16 17 18 17 16 15 13 13 11 11 11 12 12 12 13 13 13 14 14 15 15 16 16 16 15 15 14 14 14 14 14 14 14 14 14 14 14 15 16 16 17 17 17 18 18 18 17 16 17 17 17 17 17 17 18 18 17 17 17 17 17 17 18 18 19 19 20
13 12 12 12 12 12 12 12 12 12 13 13 14 15 17 18 18 17 16 17 17 17 16 15 14 14 13 12 13 13 14 14 14 14 14 14 13 14 15 16 17 17 17 16 15 15 15 15 16 17 17 17 17 16 16 16 16 17 18 18 19 19 19 19 19 18 17 17 17 17 17 18 18 18 18 18 18 18 18 18 19 19 19 20 20
17 16 14 12 12 13 14 14 14 15 16 16 16 15 16 17 18 17 15 16 18 18 17 17 18 18 17 16 17 17 18 19 19 18 17 16 15 15 15 16 17 18 18 19 18 18 17 17 18 19 20 20 21 20 19 18 17 18 19 19 20 20 20 20 20 20 20 19 19 19 19 19 19 19 19 20 20 20 20 20 21 21 22 22 22
17 16 14 12 12 13 15 15 15 15 16 16 15 13 13 15 17 18 18 18 18 19 20 20 21 21 20 19 19 19 20 21 22 21 20 19 19 19 18 18 18 19 19 19 19 19 19 19 19 20 21 22 23 23 22 21 20 19 19 19 20 21 21 22 22 22 22 21 21 21 21 21 21 21 21 21 22 22 22 23 23 23 24 24 25
16 15 16 16 15 15 16 16 16 15 15 15 14 14 14 14 14 16 18 19 19 19 21 21 21 22 21 20 20 20 20 21 21 22 21 20 19 19 19 20 20 20 20 20 20 20 20 20 21 21 22 22 23 23 23 23 22 21 21 20 21 21 22 22 22 23 23 23 22 23 23 23 22 22 23 23 23 24 24 25 25 26 26 27 27
19 19 20 20 19 17 17 17 17 17 16 16 17 17 16 15 15 15 16 18 20 20 20 19 20 22 21 20 21 21 21 21 20 21 22 19 17 16 17 18 19 20 20 20 20 20 20 21 21 21 21 21 22 22 23 23 23 24 24 24 23 23 24 24 24 24 24 24 24 24 24 24 24 24 24 24 24 25 25 26 26 27 28 29 29
25 25 25 25 24 22 21 20 19 19 19 20 21 19 17 16 17 18 18 20 22 22 21 20 20 21 20 20 22 23 22 22 22 22 22 20 18 18 19 19 20 20 20 20 20 21 22 22 22 22 22 22 22 23 23 23 23 24 26 27 27 27 27 27 27 27 27 27 27 28 27 27 27 26 26 26 26 26 27 27 28 29 29 30 31
31 31 31 30 28 27 26 25 24 23 23 24 22 20 19 18 19 20 20 20 20 21 22 22 22 22 21 22 24 24 24 25 25 25 24 23 23 25 25 25 24 24 24 24 23 23 24 25 26 26 26 26 26 26 25 25 25 25 26 27 28 29 30 30 30 30 30 30 31 31 32 32 32 31 30 30 30 30 30 30 31 32 33 33 34
35 35 33 32 30 30 31 30 29 28 28 27 25 23 23 22 21 20 21 21 21 21 22 24 26 28 29 29 29 29 29 29 29 29 29 30 31 31 31 31 30 29 29 29 29 29 28 29 29 30 31 31 31 31 31 30 30 29 28 28 28 29 30 31 32 33 33 34 34 35 35 36 36 35 35 35 35 35 35 35 36 36 37 38 39
37 37 36 35 34 34 34 34 34 33 32 32 31 30 29 28 26 25 25 26 27 28 28 29 30 31 32 31 31 32 32 33 33 34 35 37 37 36 37 37 36 34 33 33 33 34 34 34 34 34 35 35 35 36 36 36 36 35 34 33 32 32 33 34 35 36 37 38 39 39 40 40 40 40 40 40 40 40 41 41 42 43 43 43 42
41 41 40 39 39 38 38 38 38 37 36 35 34 33 32 32 32 31 30 30 30 31 32 32 31 31 31 31 31 31 32 33 34 35 37 38 39 39 39 40 39 37 36 36 36 37 38 38 39 38 38 38 38 39 40 40 40 40 39 39 38 38 38 39 40 40 41 42 42 43 44 45 45 45 45 45 45 45 46 47 48 48 49 48 46
44 44 44 43 42 41 41 41 40 39 39 37 36 36 35 35 35 35 34 33 32 32 32 32 32 31 32 32 33 33 34 35 36 36 36 36 37 36 36 36 35 35 36 36 37 38 39 40 40 41 41 41 41 42 43 43 42 43 43 43 42 42 42 43 43 44 43 44 44 45 46 47 48 49 49 49 49 50 51 52 52 52 53 53 52
45 45 45 45 45 44 44 43 42 41 40 39 38 38 38 37 37 36 36 35 34 34 34 35 34 33 33 33 34 35 36 36 36 36 36 36 36 35 35 34 35 35 36 36 37 37 38 39 40 41 41 42 43 44 45 45 46 46 46 46 46 46 46 46 46 46 45 46 46 47 47 49 51 51 52 52 53 54 54 55 55 56 55 56 55
43 43 44 44 43 43 43 43 43 43 43 42 41 40 40 39 39 39 38 38 37 37 37 38 37 36 35 35 36 36 37 37 37 38 38 37 37 37 37 37 37 37 37 38 38 38 38 39 40 41 42 43 43 44 45 46 47 48 48 48 49 49 49 49 49 49 48 47 47 47 49 51 53 53 53 53 54 55 55 55 56 56 56 57 57
41 42 43 43 43 43 44 45 45 45 44 43 43 43 43 43 42 42 41 40 39 39 39 39 39 39 39 39 39 39 39 40 40 40 40 39 39 40 40 40 40 40 41 40 40 40 40 40 40 41 42 43 44 45 46 46 47 48 49 49 50 50 51 51 51 50 49 49 48 48 50 52 52 53 53 54 55 55 55 56 56 56 56 57 57
38 40 41 41 43 44 45 45 45 44 44 44 44 43 43 43 42 42 42 42 42 42 42 42 42 42 43 43 43 43 42 42 42 42 42 42 42 42 43 43 43 43 43 43 43 43 43 42 41 41 42 43 44 45 46 46 47 48 49 49 50 50 51 51 51 51 50 50 50 50 52 52 53 54 55 55 56 57 57 57 58 58 59 59 59
33 35 37 38 39 40 42 42 42 42 42 42 42 41 40 41 42 42 43 43 43 44 44 45 45 45 45 45 45 44 44 44 43 43 44 44 44 44 44 44 44 44 44 45 45 45 44 44 44 43 43 43 43 44 45 46 46 47 48 49 49 50 50 51 51 51 51 52 52 53 54 54 55 57 58 59 60 60 61 61 62 62 63 63 64
31 32 34 35 35 35 36 36 38 39 40 41 40 40 40 41 42 43 43 44 44 44 44 45 45 45 45 45 45 45 44 44 44 44 45 45 46 45 45 45 45 45 45 45 45 45 45 45 45 44 43 43 43 44 44 45 46 46 47 48 49 49 50 50 51 52 52 53 54 54 55 56 57 59 60 61 62 63 64 65 65 66 66 66 67
42 39 37 37 36 36 36 36 37 38 39 40 41 41 42 43 44 44 45 45 46 45 44 44 44 44 45 45 45 45 45 45 46 46 47 47 47 47 47 46 46 46 46 46 46 45 45 45 45 44 44 43 43 43 44 44 45 45 46 46 47 48 48 49 50 50 51 52 53 54 54 55 57 58 60 61 63 64 65 65 66 67 67 68 68
53 51 49 47 46 46 45 44 42 41 40 42 44 45 45 46 46 46 46 48 50 49 47 47 47 47 47 47 47 46 47 47 47 47 47 47 47 47 47 47 47 47 46 46 45 45 45 45 44 44 44 44 44 44 44 44 44 44 44 45 45 46 46 47 47 48 49 50 51 52 53 54 55 56 58 59 61 62 63 64 65 66 67 67 67
56 55 54 54 54 54 52 50 48 44 43 44 46 48 49 48 48 47 47 51 54 54 52 51 51 50 50 49 49 49 49 49 49 49 49 48 48 48 48 48 47 47 46 46 45 45 45 44 44 44 44 44 44 44 44 44 44 43 43 43 44 44 45 45 45 46 47 47 48 50 51 52 53 54 55 56 58 60 61 62 63 64 65 65 66
55 55 55 55 55 56 56 55 53 51 50 50 51 52 52 52 51 50 51 53 55 56 55 54 53 52 51 51 51 52 52 52 51 51 50 50 50 49 49 48 48 47 47 46 46 45 45 44 44 44 43 43 43 43 43 43 43 42 42 42 43 43 44 44 45 45 46 46 47 48 49 50 50 51 52 53 54 55 56 57 58 59 60 60 61
56 56 56 56 56 56 57 57 57 57 58 58 58 57 57 56 55 56 57 57 58 58 57 57 56 55 55 55 55 55 53 52 51 51 51 50 50 49 49 48 48 48 48 47 47 46 45 44 44 43 43 43 42 42 42 42 42 42 41 42 42 43 43 44 44 45 46 46 47 47 48 48 49 49 50 50 51 51 52 53 54 55 55 56 57
56 56 56 57 57 57 57 57 58 59 60 61 61 61 61 61 60 61 61 61 61 60 60 59 58 58 58 57 57 55 54 52 51 51 50 50 49 49 49 49 48 48 48 48 47 46 45 45 44 44 43 43 42 41 41 41 41 41 41 41 41 42 43 44 44 45 45 46 46 46 47 47 48 48 49 50 51 52 54 55 56 57 57 58 58
57 57 57 57 58 58 58 58 59 60 61 61 61 62 62 62 62 62 62 62 62 61 61 60 59 58 57 56 55 54 53 52 51 50 49 49 49 48 48 49 48 48 47 47 46 45 45 44 44 43 42 41 41 40 39 40 40 40 40 40 41 42 42 43 43 43 44 44 45 45 46 47 48 50 51 52 53 54 56 57 57 58 59 60 60
62 62 62 62 63 63 62 61 61 60 60 60 60 60 60 60 60 60 61 61 61 60 59 58 57 56 55 54 53 52 51 51 50 49 48 48 48 48 48 48 47 46 45 44 44 44 43 43 42 41 41 40 39 38 38 39 39 39 40 40 40 40 41 41 42 43 43 43 44 45 47 48 49 50 51 52 52 53 54 54 55 56 57 58 58
67 67 67 67 66 66 65 64 63 62 61 60 59 58 58 58 58 58 59 60 60 59 58 57 56 55 54 53 52 51 50 50 49 48 48 48 47 47 47 46 45 44 43 42 42 41 40 39 39 39 38 38 38 38 38 38 38 38 38 39 39 40 40 40 41 41 42 43 44 45 46 46 47 47 47 48 49 50 52 53 54 54 55 56 56
67 67 67 67 67 67 66 66 65 65 63 62 61 59 58 58 58 57 58 58 58 58 57 56 56 55 55 54 52 51 50 49 48 47 47 47 46 45 44 44 42 42 41 41 40 39 37 36 36 37 37 37 37 37 37 37 37 37 37 38 38 38 38 39 39 40 41 42 42 42 42 42 43 44 45 47 49 51 53 54 55 56 56 56 56
65 65 65 65 66 66 65 65 65 65 64 63 62 61 60 59 59 58 58 58 57 56 55 55 55 55 54 53 52 50 48 47 46 46 45 44 43 43 42 41 40 40 40 40 38 36 35 35 35 35 35 36 36 35 36 36 36 36 36 36 36 36 37 38 38 38 38 38 38 39 40 41 43 45 48 50 52 54 55 57 57 57 57 56 55
64 63 63 63 64 64 63 63 63 63 63 62 62 61 60 59 58 57 56 55 53 53 53 53 53 53 52 51 49 48 46 45 44 43 42 41 41 40 39 38 39 39 39 38 36 35 34 34 34 34 34 34 34 34 34 34 34 35 34 34 35 35 35 34 33 33 33 35 37 39 41 43 46 49 51 52 53 54 54 54 53 52 50 49 48
64 64 63 63 63 63 63 62 61 61 61 60 60 59 58 57 56 54 52 51 50 50 50 50 51 50 49 48 47 45 44 43 42 41 40 40 39 38 37 38 38 38 38 36 35 34 34 34 33 33 33 33 33 33 33 33 33 33 33 33 32 31 29 29 29 31 33 36 39 42 45 47 49 49 49 48 46 45 43 42 41 40 39 38 37
64 64 64 64 64 63 63 62 61 61 60 59 58 57 56 54 52 50 48 47 47 47 47 47 48 47 46 46 45 43 43 42 42 41 40 39 38 37 38 38 38 37 36 35 34 33 33 32 33 33 33 33 32 32 31 31 31 31 30 28 26 25 25 26 29 32 35 38 42 45 47 46 44 42 40 38 36 34 34 33 32 30 29 29 28
62 63 63 63 63 63 62 62 62 61 60 59 58 57 55 52 49 47 46 45 44 44 44 44 44 44 44 43 43 43 43 42 42 41 40 39 38 38 38 38 37 36 34 34 33 32 32 32 32 32 32 32 31 30 29 29 28 26 23 20 20 22 25 28 31 34 37 41 44 45 42 38 35 34 33 32 30 29 28 27 25 24 24 24 25
54 56 58 59 59 59 59 60 60 60 60 60 58 56 54 52 50 48 46 44 42 41 41 41 41 41 41 41 41 42 42 42 42 41 39 38 38 38 37 37 35 34 33 32 32 32 32 32 31 31 30 30 29 28 27 25 22 18 16 16 19 22 26 29 32 36 39 43 43 39 33 29 27 27 26 25 24 23 22 22 22 22 23 24 25
43 45 47 48 50 51 52 54 55 57 58 58 57 55 53 52 50 48 47 44 42 40 39 39 38 38 38 38 39 40 40 40 40 39 38 37 36 36 36 34 33 32 32 32 31 31 30 30 29 29 28 27 25 24 21 18 14 12 13 16 20 23 26 29 33 37 41 41 36 29 24 22 21 19 19 19 19 19 19 20 21 21 22 23 24
34 34 36 37 39 41 43 45 48 50 52 53 53 52 51 50 49 48 46 44 42 40 39 38 37 36 36 36 37 38 38 38 37 36 35 34 34 34 34 32 31 31 31 30 30 29 28 27 26 25 24 23 21 18 15 12 10 11 14 17 20 23 26 30 34 38 38 33 26 21 20 19 17 16 17 17 18 18 19 19 20 21 22 23 24
27 27 28 30 32 34 36 38 40 42 45 47 47 47 47 47 46 45 44 42 41 40 38 38 37 36 35 35 35 35 35 34 33 32 32 31 32 32 31 30 30 29 29 28 27 25 24 23 22 21 20 18 15 13 11 9 10 12 14 17 20 23 26 30 34 35 31 24 18 16 17 16 16 17 17 17 17 17 18 19 20 21 22 23 24
24 24 25 26 28 29 31 33 35 36 38 39 40 41 42 42 42 42 41 41 40 38 37 36 36 35 34 34 33 32 31 31 30 29 29 29 29 29 28 28 27 27 25 24 22 22 21 20 18 17 15 14 12 11 10 9 10 12 15 18 20 22 25 29 32 31 25 18 14 14 15 16 18 18 16 15 16 17 19 20 20 20 20 21 23
22 23 24 26 27 28 29 30 30 31 32 32 34 35 35 36 36 37 38 38 37 36 36 35 34 33 32 31 31 30 28 27 27 26 26 26 25 25 25 24 23 22 20 20 19 19 17 16 15 14 13 13 12 11 9 8 9 12 15 18 20 22 24 27 29 27 22 16 14 13 15 17 18 16 14 14 16 17 18 18 18 18 19 20 22
21 23 23 24 24 24 25 26 26 26 26 26 26 28 29 31 32 33 34 34 34 34 33 32 32 31 30 29 28 27 25 24 24 23 23 22 21 21 20 19 18 18 18 17 17 16 15 14 14 14 13 13 12 10 8 8 9 12 15 17 19 20 22 24 26 25 20 16 15 15 16 17 17 14 13 15 16 15 16 17 18 18 19 21 23
18 17 16 15 14 14 15 15 17 19 21 21 22 24 25 26 26 27 27 28 29 29 29 28 28 27 26 24 23 22 21 21 21 20 19 18 18 17 17 17 17 17 17 16 16 15 15 15 14 14 13 12 10 8 7 7 9 12 15 17 17 19 20 22 25 25 21 17 16 17 18 18 15 13 13 15 15 15 16 18 19 20 21 22 23
11 9 8 8 8 9 8 7 7 8 10 12 14 16 18 18 18 18 19 20 20 20 21 21 21 21 20 19 19 20 19 18 18 17 17 17 16 15 16 17 17 17 17 17 16 16 15 15 15 14 13 11 9 8 7 8 10 13 15 16 17 18 19 21 24 26 24 20 16 17 17 17 14 12 12 13 14 15 17 19 20 21 22 24 23
4 2 2 3 4 3 1 2 4 5 7 7 7 8 11 14 14 14 15 14 13 14 16 19 19 18 18 19 19 18 17 17 17 18 17 16 15 16 17 17 17 17 17 17 16 16 16 15 15 13 12 11 9 7 7 8 10 12 14 15 16 18 18 19 22 25 26 25 22 18 17 16 13 12 12 13 13 14 17 19 20 22 23 24 24
4 6 7 7 7 8 7 7 8 11 13 12 10 9 11 11 11 12 13 12 12 14 17 20 20 20 20 20 19 19 18 18 17 17 17 17 18 18 18 18 18 17 17 16 16 16 16 15 14 13 12 11 9 7 7 8 10 12 13 14 16 17 17 18 20 23 25 27 26 24 21 17 14 13 13 13 14 15 17 19 21 22 23 24 25
9 9 7 7 8 8 8 7 9 11 11 10 9 11 10 9 10 14 15 13 13 16 19 20 20 20 21 19 18 19 19 18 17 17 18 19 20 20 19 18 17 16 16 16 16 15 14 13 13 13 12 11 9 8 7 8 10 11 12 14 15 16 17 17 19 21 23 25 26 27 26 22 17 14 13 14 15 17 18 19 21 22 24 24 25
10 8 6 6 7 7 6 6 6 8 9 9 9 12 13 12 12 14 16 15 15 16 16 16 17 18 18 17 16 17 19 19 18 19 20 20 20 19 18 18 17 16 16 15 14 13 13 13 13 13 12 11 10 9 8 9 10 11 11 13 14 15 16 17 18 19 21 23 24 26 27 26 23 18 15 15 16 17 19 19 19 21 23 24 24
9 7 7 6 6 6 7 7 7 8 9 10 11 14 15 14 12 13 15 14 13 13 12 11 12 15 16 16 16 18 19 19 20 22 21 20 19 18 17 17 16 15 14 13 13 12 13 13 13 13 13 12 10 10 10 10 10 11 11 12 14 15 16 17 17 18 20 21 22 24 25 27 27 25 20 17 16 17 18 19 18 19 21 23 23
7 7 7 7 7 7 7 8 8 9 10 11 12 15 16 14 12 12 13 11 10 11 11 11 12 15 17 18 18 19 21 22 22 22 20 19 18 17 16 15 14 13 13 13 13 13 13 14 14 13 13 12 12 11 11 11 11 11 12 12 13 14 16 17 17 18 19 20 21 23 24 25 26 27 26 23 19 17 17 17 17 17 18 20 22
8 7 6 5 4 4 5 6 7 8 9 11 12 14 14 13 12 13 13 11 9 10 12 14 15 17 19 20 21 22 23 22 21 20 19 17 16 15 14 13 12 13 13 13 13 13 14 14 14 14 13 13 13 13 13 13 13 13 13 13 14 14 15 16 17 18 19 19 20 22 24 25 26 27 27 27 25 21 17 16 16 16 16 17 19
12 10 9 7 6 5 4 4 4 5 7 9 10 12 12 12 12 13 14 14 13 12 13 16 18 20 21 22 23 23 22 21 19 18 17 16 14 13 13 12 13 13 13 13 13 14 14 14 14 14 14 14 14 14 15 15 15 14 14 14 14 15 16 16 17 18 19 19 19 20 23 24 26 27 27 28 28 27 22 18 16 15 14 15 16
13 12 11 9 7 6 5 4 4 3 4 5 7 8 10 11 12 13 14 15 15 15 16 18 20 22 23 24 23 22 20 19 18 16 15 14 13 13 13 13 13 13 14 14 14 14 14 14 14 14 14 15 15 15 16 16 16 16 15 15 15 15 16 16 17 18 18 18 18 19 20 23 25 27 28 28 28 29 27 23 19 16 15 15 15
Wind_Direction
271 263 259 261 268 272 270 265 261 262 266 270 270 268 264 261 259 254 254 262 271 277 276 271 269 271 272 270 267 265 262 262 263 264 263 261 260 261 263 264 266 267 268 270 272 275 277 278 281 282 283 285 286 288 289 290 289 288 287 284 282 280 280 279 278 276 275 274 274 274 273 272 272 272 273 273 273 273 272 270 269 267 267 266 265
273 266 262 263 267 268 265 261 259 263 268 271 269 266 262 257 254 252 250 257 268 276 278 275 269 268 272 275 276 274 272 272 270 266 262 259 258 260 262 262 263 264 265 267 268 269 270 271 274 276 279 281 282 285 287 289 289 288 285 283 280 278 277 276 275 273 271 270 270 270 270 271 272 272 273 273 273 273 273 273 272 271 270 269 269
280 275 271 268 265 267 269 271 270 269 270 270 270 269 264 258 255 254 253 256 261 268 275 275 269 266 269 273 274 274 275 274 271 269 266 262 261 263 263 261 261 260 261 263 263 263 264 266 270 274 277 279 280 281 283 284 286 285 283 282 280 278 276 274 273 272 271 270 268 268 267 267 269 270 271 272 272 273 273 273 273 274 274 274 274
284 280 277 273 267 266 271 275 277 277 276 274 272 268 262 260 259 257 256 258 262 266 271 272 270 267 267 272 275 277 280 276 272 270 267 264 265 265 262 260 258 258 258 259 261 262 264 267 270 273 275 277 277 277 277 278 279 279 280 280 279 278 276 274 272 271 270 269 268 268 267 266 266 267 268 269 271 272 273 274 274 274 275 276 276
281 281 281 280 275 270 270 272 276 278 277 274 270 266 262 262 263 259 257 260 264 267 268 267 269 270 270 276 280 281 282 279 273 267 262 264 269 268 263 259 256 255 255 256 259 262 266 269 271 273 274 273 272 272 271 272 274 274 275 275 275 275 274 274 273 272 271 269 266 265 265 264 263 263 264 265 266 267 268 269 271 271 272 272 272
278 281 284 285 281 275 273 275 276 275 276 275 272 270 268 264 263 261 261 263 264 266 265 261 262 267 270 273 274 274 274 273 267 260 259 264 270 270 268 265 259 256 256 257 259 261 263 265 268 270 271 269 267 266 268 271 273 274 274 273 273 272 272 272 272 272 272 270 268 266 264 263 261 260 260 261 262 263 263 264 265 265 267 268 269
281 284 287 288 286 281 279 280 277 274 277 280 277 273 271 267 264 263 264 264 263 262 262 257 256 262 267 267 267 267 268 269 267 263 261 263 266 271 275 272 267 264 263 262 261 261 261 262 263 265 266 265 263 262 264 269 273 274 275 275 274 273 272 272 272 272 272 272 272 271 270 268 265 262 260 260 261 263 265 266 266 266 265 266 267
282 284 286 286 284 281 279 279 278 276 277 279 277 275 274 270 265 265 268 267 261 257 258 257 256 261 266 268 267 266 265 266 266 265 262 264 271 277 277 274 272 271 270 268 266 265 265 265 264 264 264 264 263 261 261 264 268 271 272 273 273 273 272 272 272 273 273 273 273 274 273 273 271 270 268 266 266 267 269 271 272 273 273 272 271
278 280 281 281 280 277 276 276 277 276 274 274 275 276 276 271 264 263 265 266 261 256 257 258 260 265 270 272 269 266 264 263 262 262 262 266 274 278 276 274 274 272 270 270 270 270 270 269 269 268 267 266 266 265 264 265 267 268 268 269 270 270 271 271 272 273 274 275 275 275 274 273 272 271 271 271 271 272 273 274 275 276 276 276 276
275 275 276 277 276 274 273 273 274 274 273 273 274 274 273 271 267 265 264 264 263 261 261 262 264 269 272 272 268 265 264 264 263 264 265 269 274 275 274 273 273 271 270 270 270 271 271 271 271 271 271 271 270 270 269 268 268 268 267 266 265 265 266 267 268 269 271 272 273 274 273 273 272 271 270 270 271 271 271 272 273 274 275 274 274
272 273 274 275 274 273 271 271 271 272 272 272 272 272 272 271 270 269 267 266 265 263 263 264 267 269 270 269 267 266 267 268 269 269 270 272 274 274 273 272 271 271 271 272 271 271 271 271 271 272 272 272 273 272 272 271 270 270 269 268 267 265 264 264 264 265 267 269 270 271 272 271 271 270 269 268 268 269 269 270 271 272 273 273 273
272 272 273 273 273 272 271 271 271 272 272 271 270 270 271 271 270 269 269 270 269 266 263 262 264 265 265 266 267 268 270 272 273 273 273 272 272 272 270 270 270 271 272 273 273 272 272 272 272 272 272 272 272 272 272 271 271 271 270 269 269 267 266 265 264 264 265 267 268 270 270 270 269 268 267 266 266 266 267 268 269 269 270 271 272
272 271 271 272 271 271 271 271 271 271 271 271 270 269 269 269 268 269 269 269 268 265 262 261 262 264 265 266 267 268 269 271 271 272 271 270 269 270 270 271 271 272 272 272 272 272 273 273 273 273 272 272 271 270 271 271 270 270 270 270 269 269 268 267 266 265 265 265 265 266 268 268 267 267 267 267 266 265 265 266 267 268 268 268 270
270 271 271 271 270 269 269 269 270 271 270 270 269 268 267 266 266 267 267 267 265 263 262 263 265 268 271 272 271 270 270 269 269 270 271 271 271 272 273 273 274 274 274 273 273 273 273 274 273 273 273 272 272 271 271 271 271 271 271 271 271 271 271 270 269 269 268 267 266 266 266 265 265 266 267 267 267 266 266 266 266 267 267 267 268
268 269 270 270 270 270 270 269 269 269 269 268 268 269 269 268 268 268 268 267 267 267 266 267 269 271 274 274 274 273 271 271 271 271 272 273 275 276 276 277 277 278 278 277 277 277 277 276 274 273 271 271 271 271 271 271 271 272 272 273 273 273 273 273 272 272 271 270 269 268 267 266 267 267 268 268 268 267 267 267 267 266 266 267 267
268 269 270 271 271 271 270 270 269 269 268 269 270 271 272 271 271 270 270 269 269 270 270 270 271 273 274 274 273 273 272 271 272 272 273 274 276 277 278 278 278 279 279 280 280 280 280 279 277 274 271 270 269 269 270 270 271 271 272 273 273 273 273 273 273 273 273 272 271 269 269 269 270 269 269 269 269 269 268 268 268 267 267 267 268
272 272 272 271 271 271 270 269 268 268 268 268 270 271 271 271 271 271 271 270 270 270 270 270 271 272 272 273 273 273 273 273 273 274 275 276 277 278 278 278 278 279 279 280 280 280 280 280 279 277 274 272 270 269 269 269 269 269 270 270 271 271 272 272 273 272 272 271 270 270 269 269 269 269 269 269 269 269 269 269 268 268 268 268 268
264 265 267 266 266 267 266 266 266 266 266 266 267 267 267 268 269 269 269 269 269 270 270 270 270 271 272 272 273 273 274 274 275 276 277 279 280 280 280 280 280 280 280 280 280 279 279 279 278 278 276 274 273 271 270 270 269 269 269 270 270 271 271 271 272 272 272 271 271 271 270 270 269 269 269 269 269 269 269 269 269 268 268 268 268
256 256 256 256 256 256 256 258 260 262 263 262 262 262 263 263 264 264 265 267 267 268 270 271 271 271 272 273 273 274 275 276 278 279 280 281 281 281 281 281 281 281 281 280 280 279 279 278 278 277 277 275 274 273 272 272 271 271 271 271 271 272 272 272 273 273 273 273 273 273 272 271 270 270 270 269 270 270 269 269 269 269 269 269 269
256 255 254 254 254 254 254 254 255 258 261 262 261 260 261 262 264 265 266 268 268 268 270 272 272 273 274 274 274 275 276 278 280 280 280 280 280 280 280 280 281 281 281 280 280 280 279 279 278 277 276 275 275 274 274 274 274 274 274 274 274 274 273 273 274 274 274 274 274 274 273 273 272 272 272 271 271 271 271 270 270 270 270 269 269
259 257 256 255 254 255 255 255 256 258 260 261 262 262 262 264 266 265 265 267 269 271 272 273 273 274 274 275 276 277 279 280 281 280 279 279 279 279 280 280 280 280 280 280 280 280 279 279 278 277 276 276 275 275 275 275 276 276 276 276 275 275 275 275 275 275 275 274 274 274 274 274 275 275 274 274 274 273 273 273 273 273 272 272 271
261 260 258 257 256 256 256 257 258 258 258 258 260 261 263 264 263 263 263 266 269 272 273 273 273 274 274 275 277 279 280 281 281 280 279 279 280 280 280 281 280 280 280 280 280 279 279 278 278 278 277 276 276 275 275 275 275 275 275 275 275 275 276 276 276 276 275 275 275 275 276 276 276 277 277 277 277 277 277 277 277 276 276 276 275
262 262 261 260 259 258 258 258 259 259 259 260 261 262 263 263 263 263 265 267 269 270 271 272 272 273 274 275 277 278 279 279 279 279 279 279 280 280 280 280 280 280 280 280 280 280 279 279 278 277 276 275 274 274 275 275 275 275 276 276 276 276 276 276 276 276 276 276 277 277 278 277 277 278 278 279 279 279 279 279 279 279 278 278 278
263 263 263 262 262 261 261 261 261 261 261 262 262 263 263 264 264 265 265 266 268 269 270 271 271 272 273 274 275 277 277 277 277 277 278 278 278 278 278 278 279 279 280 280 280 279 279 278 277 276 275 274 274 275 276 276 277 278 278 277 277 276 276 276 277 277 277 277 278 278 279 279 279 279 279 280 280 280 280 280 280 280 279 279 279
262 262 263 263 263 264 264 263 263 263 263 263 263 264 264 265 265 266 266 266 268 269 270 271 271 271 272 273 274 275 276 276 277 277 277 277 277 277 277 277 278 278 279 279 278 278 277 277 276 276 275 275 276 276 277 278 278 278 278 277 277 277 277 277 277 278 278 279 279 279 280 280 280 280 280 280 280 280 279 279 279 279 279 278 278
263 263 263 264 264 264 264 264 264 263 263 264 264 265 265 266 266 267 267 267 268 269 270 271 272 272 272 273 274 274 275 276 276 276 276 276 275 275 275 275 276 276 276 276 276 275 275 275 275 275 276 276 277 277 278 278 278 278 278 278 278 278 278 279 279 279 280 280 280 280 280 281 281 281 281 280 280 279 279 279 278 278 278 278 278
266 266 265 264 264 264 263 263 263 262 262 263 263 263 264 265 266 267 268 269 270 270 271 272 272 272 272 272 273 274 274 275 275 275 274 274 274 274 274 275 275 275 275 274 274 273 273 273 274 274 275 276 276 277 277 277 277 277 278 278 278 278 279 280 280 280 281 281 281 281 281 281 280 280 280 280 280 281 280 280 279 278 278 278 278
266 266 266 266 265 265 264 264 264 263 262 262 262 262 262 263 264 265 266 268 269 271 272 272 272 272 272 272 273 273 273 273 273 273 272 272 272 272 273 273 274 274 273 272 272 272 272 272 272 273 274 274 275 276 276 277 277 277 278 278 279 279 280 281 281 282 282 281 281 279 279 278 279 280 281 282 283 283 282 281 280 279 279 279 279
265 265 265 265 265 265 265 265 265 265 264 263 263 262 261 262 262 264 265 266 268 269 270 270 270 271 272 272 273 273 272 272 271 270 270 270 270 270 271 272 272 272 271 271 271 272 272 271 271 272 273 274 275 276 277 277 278 279 279 280 281 281 282 283 282 281 280 279 278 278 278 280 282 284 286 286 285 284 283 282 282 282 282 282 282
266 265 265 265 265 266 265 265 265 265 265 264 264 263 262 262 262 262 264 265 266 266 267 267 267 268 269 270 271 271 271 270 269 269 269 269 269 269 270 270 269 269 269 270 271 272 272 272 272 273 273 275 276 277 277 278 279 279 280 281 282 283 282 281 279 278 277 278 280 282 284 286 288 289 288 287 285 284 284 284 285 285 285 284 283
265 265 265 265 264 265 265 264 264 264 264 264 264 264 264 263 263 263 263 263 263 263 264 265 266 267 267 268 268 269 269 268 268 267 267 267 267 268 269 268 268 268 268 270 271 271 272 272 273 273 275 276 277 278 278 278 279 280 281 282 282 280 278 277 278 279 282 284 287 288 290 291 292 291 289 288 287 287 287 288 288 288 287 286 285
263 263 263 263 263 263 263 263 264 263 264 264 264 264 264 264 265 264 263 263 262 261 261 262 263 264 265 265 266 267 267 267 266 266 266 266 267 268 268 267 268 268 269 270 271 271 271 272 273 274 275 276 277 277 277 277 278 280 280 280 278 277 278 281 285 287 289 291 292 294 295 296 295 293 291 290 290 291 292 292 292 291 291 291 291
261 261 261 261 262 262 262 262 263 263 263 263 263 264 264 264 265 264 264 263 261 260 260 260 260 261 261 262 263 264 264 264 264 265 265 266 267 267 267 267 268 268 269 269 269 270 270 271 272 273 274 274 274 274 275 276 277 276 274 275 280 285 288 290 291 293 294 296 298 300 300 299 296 294 293 293 293 293 293 294 295 295 296 296 296
260 260 261 261 261 261 261 261 261 261 262 262 262 262 263 263 263 263 262 262 261 261 260 259 259 259 260 260 260 260 261 261 262 263 263 264 265 265 265 266 267 267 267 267 267 268 268 269 270 270 270 270 270 271 272 272 269 267 271 281 290 293 294 295 296 299 301 303 304 305 303 300 297 295 294 295 294 294 294 296 298 300 300 300 300
260 260 260 261 260 260 260 260 260 260 260 260 261 261 261 261 261 261 261 261 261 260 260 259 259 259 259 258 259 259 260 260 261 261 262 262 262 262 263 264 264 265 265 265 265 265 265 265 265 264 264 264 265 266 265 261 259 267 282 292 295 297 299 302 305 307 308 308 307 306 304 302 301 299 298 299 298 297 299 301 302 304 305 306 305
260 260 260 260 260 260 260 259 259 259 259 259 259 258 258 258 258 259 259 259 259 259 259 259 259 259 259 259 259 258 258 259 259 259 259 258 257 258 260 261 262 262 262 261 261 261 259 258 257 256 258 259 258 255 250 249 261 280 291 296 300 304 307 310 311 311 311 309 306 304 305 305 305 305 305 304 303 303 305 307 309 311 313 315 314
261 261 261 262 262 262 261 261 261 260 259 258 257 256 255 254 255 255 256 256 256 257 257 257 258 258 259 258 257 257 257 257 257 257 256 255 255 256 258 259 258 257 256 255 254 252 249 247 248 249 250 249 244 238 238 253 274 289 296 302 306 309 312 314 315 316 314 309 305 305 306 306 308 310 308 306 307 310 313 314 316 318 320 323 323
261 262 265 267 267 267 266 265 263 262 260 258 255 253 251 250 250 251 252 252 253 254 254 254 255 255 256 256 256 256 256 255 255 255 254 253 252 253 253 252 251 250 248 245 241 238 236 236 238 239 237 233 230 231 241 261 282 296 303 307 309 312 315 319 322 323 319 310 303 305 308 311 314 314 311 310 313 315 316 317 317 317 319 325 329
260 264 269 273 273 272 269 265 262 261 259 257 253 250 247 246 245 245 246 248 249 250 250 251 252 252 253 254 255 255 254 253 252 250 248 246 246 245 245 243 241 238 233 227 223 222 224 226 228 229 228 227 229 234 245 267 289 302 306 308 310 314 319 327 333 333 325 312 305 306 308 313 317 315 311 314 318 318 318 321 321 319 322 327 331
263 268 272 274 273 270 266 263 260 257 254 252 249 244 241 240 240 241 242 244 245 246 247 247 249 250 250 251 251 250 248 246 243 241 239 236 233 232 230 227 221 216 211 208 208 211 215 219 223 226 227 227 229 234 248 273 292 302 304 306 310 317 325 336 344 344 333 316 308 308 308 312 314 312 313 318 322 326 331 334 335 334 334 333 331
266 269 271 274 276 274 269 262 255 249 245 242 237 233 232 233 234 236 238 240 242 243 243 243 244 246 246 244 240 238 236 234 232 229 223 215 209 207 205 203 200 197 197 199 203 208 213 219 224 225 224 223 226 234 253 276 293 299 302 306 314 322 330 342 352 354 347 329 311 306 309 310 308 307 312 318 323 333 342 345 346 348 348 343 335
262 266 273 284 289 287 278 262 246 239 235 230 227 225 222 221 222 224 226 228 231 233 232 231 232 233 230 223 218 217 218 215 211 204 196 190 188 189 191 191 192 194 196 200 205 210 216 220 221 220 219 220 225 236 254 276 291 296 302 312 320 325 334 346 355 359 360 352 332 316 314 314 308 305 309 314 323 339 347 349 350 354 355 351 344
252 276 354 12 16 9 348 181 173 167 159 158 169 181 182 185 191 195 197 201 205 206 207 209 209 206 201 197 196 196 194 191 186 181 179 183 187 190 191 192 194 197 199 202 208 213 217 217 217 216 218 221 226 237 257 278 291 297 306 317 323 326 335 348 355 359 3 5 359 345 334 325 316 310 310 312 322 337 348 351 353 354 354 354 355
107 77 59 53 55 59 75 105 129 138 142 145 151 154 152 155 166 177 185 193 194 190 191 192 189 183 181 182 182 180 180 180 180 180 183 189 191 191 192 194 196 198 202 208 212 214 215 215 215 218 220 223 227 239 260 278 291 299 308 318 325 328 335 345 353 357 1 6 7 4 355 343 326 313 310 313 319 330 341 349 353 353 352 354 359
96 78 64 60 63 67 76 98 123 139 147 153 167 178 178 178 187 196 200 200 188 178 178 180 176 172 173 176 177 178 180 182 183 184 186 188 188 189 191 194 197 202 207 211 212 213 214 216 219 223 226 226 229 240 257 273 286 296 306 316 324 329 334 341 349 354 358 2 7 9 6 359 345 323 309 308 314 322 331 340 348 352 351 352 358
95 82 75 73 76 82 92 103 124 150 162 166 174 179 178 172 171 176 177 173 167 165 169 172 170 169 173 176 176 177 179 181 182 182 182 183 185 189 193 197 201 205 208 209 211 214 218 222 225 229 231 231 232 239 252 267 280 292 304 313 320 326 332 337 344 350 354 358 3 6 8 7 2 349 326 310 307 313 322 329 338 347 350 351 355
108 101 98 99 106 116 121 119 127 149 167 175 178 176 171 163 156 154 154 155 159 164 171 178 179 180 185 187 182 179 180 181 180 180 180 183 187 193 197 200 203 205 208 212 216 221 224 228 231 233 234 235 235 241 252 265 278 291 303 312 318 324 329 333 339 346 349 353 358 2 5 7 7 4 355 335 315 309 314 322 329 339 347 350 354
115 114 116 127 137 138 133 131 135 147 161 169 175 176 175 174 170 164 159 161 170 180 188 196 194 189 190 192 187 182 181 181 179 180 183 188 192 196 199 202 206 211 216 221 225 228 232 234 236 236 237 238 240 245 254 265 278 290 300 309 317 322 326 330 335 340 343 347 353 358 1 3 6 6 5 358 342 322 313 315 323 333 342 347 352
90 96 101 108 114 111 113 122 134 148 159 165 171 177 181 183 183 181 180 184 190 190 189 192 192 189 188 188 185 181 179 179 180 183 188 191 194 198 202 208 215 222 227 230 232 235 236 237 238 239 240 242 244 250 258 267 277 287 297 306 313 320 324 327 330 334 337 342 348 353 356 359 1 3 5 5 360 347 329 315 315 324 333 340 349
81 81 80 77 76 78 85 104 128 152 169 177 182 189 195 199 200 199 198 200 201 197 191 192 194 192 187 183 179 177 178 181 184 188 191 194 198 205 211 218 225 230 233 235 237 238 238 239 240 241 242 245 248 253 260 268 276 285 294 302 310 316 321 324 326 328 331 336 344 349 351 354 357 359 1 2 2 359 349 331 314 311 318 328 339
81 80 80 77 74 73 78 89 103 121 152 176 186 193 199 203 206 205 202 200 199 197 194 192 190 186 180 176 176 178 181 185 189 192 196 202 209 215 221 226 231 235 238 239 240 240 240 241 242 243 244 247 250 255 262 268 276 283 290 297 304 311 315 318 321 322 324 329 338 345 347 350 353 356 357 358 359 359 358 350 332 313 305 310 321
Height
5737 5737 5737 5737 5737 5737 5738 5738 5738 5738 5738 5739 5739 5739 5739 5740 5740 5740 5740 5740 5741 5742 5742 5742 5743 5742 5743 5742 5742 5743 5743 5743 5743 5744 5744 5744 5745 5745 5745 5746 5746 5746 5746 5746 5746 5746 5746 5747 5747 5747 5746 5746 5746 5746 5746 5746 5747 5747 5747 5747 5747 5746 5746 5746 5746 5746 5746 5746 5746 5746 5746 5746 5746 5746 5746 5746 5746 5746 5746 5747 5747 5747 5747 5748 5748
5734 5734 5735 5735 5735 5735 5735 5735 5736 5736 5736 5736 5736 5736 5736 5736 5736 5737 5737 5738 5739 5739 5740 5740 5741 5740 5740 5740 5740 5741 5741 5741 5742 5742 5742 5742 5742 5743 5743 5743 5743 5744 5744 5744 5744 5743 5743 5744 5744 5744 5744 5744 5744 5744 5744 5744 5744 5744 5745 5745 5745 5745 5744 5744 5744 5744 5744 5744 5744 5744 5744 5744 5744 5744 5744 5744 5744 5744 5744 5744 5744 5744 5744 5744 5745
5730 5730 5732 5732 5733 5733 5733 5733 5733 5733 5733 5733 5733 5733 5733 5733 5733 5734 5734 5735 5736 5736 5737 5738 5738 5738 5738 5738 5738 5738 5739 5739 5739 5739 5740 5740 5740 5740 5741 5741 5741 5741 5741 5741 5741 5741 5741 5741 5741 5741 5741 5741 5742 5742 5742 5742 5742 5742 5742 5742 5742 5742 5742 5742 5742 5742 5742 5742 5741 5741 5741 5741 5741 5741 5741 5741 5741 5741 5741 5741 5740 5740 5741 5741 5741
5726 5727 5728 5729 5730 5731 5730 5730 5730 5730 5730 5730 5730 5730 5730 5730 5730 5731 5731 5731 5732 5733 5734 5734 5735 5735 5735 5735 5735 5735 5736 5736 5736 5737 5737 5737 5737 5738 5738 5738 5738 5739 5739 5739 5739 5739 5739 5739 5739 5739 5739 5739 5739 5739 5739 5739 5739 5739 5739 5739 5739 5739 5739 5739 5739 5739 5739 5739 5739 5739 5738 5739 5738 5738 5738 5738 5738 5738 5738 5738 5737 5737 5737 5737 5737
5723 5723 5724 5725 5727 5728 5728 5728 5728 5728 5728 5728 5727 5727 5728 5728 5728 5728 5728 5729 5729 5730 5730 5731 5732 5732 5732 5733 5733 5733 5733 5733 5734 5734 5734 5734 5734 5735 5735 5735 5735 5735 5735 5736 5736 5736 5736 5736 5736 5736 5736 5736 5736 5736 5736 5736 5736 5736 5736 5736 5736 5736 5736 5736 5736 5736 5736 5736 5736 5736 5736 5736 5736 5735 5735 5735 5735 5735 5735 5735 5734 5734 5734 5734 5734
5719 5720 5721 5722 5723 5725 5725 5726 5726 5726 5726 5725 5725 5725 5725 5726 5726 5726 5726 5726 5727 5727 5728 5728 5729 5728 5729 5730 5730 5730 5730 5730 5731 5731 5730 5731 5731 5732 5732 5732 5732 5732 5732 5732 5733 5733 5734 5734 5733 5733 5733 5733 5733 5733 5733 5733 5733 5733 5733 5733 5733 5733 5733 5733 5733 5733 5733 5733 5733 5733 5733 5733 5733 5733 5732 5732 5732 5732 5731 5731 5731 5731 5730 5730 5729
5715 5716 5717 5718 5720 5721 5722 5722 5723 5723 5723 5722 5722 5722 5722 5723 5723 5723 5723 5723 5723 5724 5725 5725 5726 5725 5726 5727 5727 5727 5727 5727 5728 5728 5727 5727 5728 5728 5729 5729 5729 5729 5729 5729 5729 5730 5730 5730 5730 5730 5730 5730 5730 5730 5730 5730 5730 5730 5730 5730 5730 5730 5730 5730 5730 5730 5730 5730 5730 5730 5730 5730 5730 5729 5729 5729 5729 5728 5728 5728 5727 5727 5727 5726 5725
5711 5712 5713 5715 5716 5717 5718 5718 5719 5719 5720 5718 5717 5718 5719 5719 5720 5720 5719 5719 5720 5721 5721 5722 5722 5722 5723 5723 5723 5723 5724 5724 5724 5724 5724 5724 5724 5724 5725 5726 5726 5726 5725 5725 5726 5726 5726 5726 5726 5726 5726 5726 5726 5726 5727 5727 5727 5727 5727 5726 5726 5726 5726 5726 5726 5726 5726 5726 5726 5726 5726 5725 5725 5725 5725 5725 5725 5725 5725 5724 5724 5723 5723 5722 5722
5707 5708 5709 5710 5711 5712 5713 5714 5714 5715 5716 5714 5714 5715 5715 5715 5716 5716 5716 5716 5717 5718 5718 5719 5719 5719 5719 5719 5720 5720 5720 5720 5720 5720 5720 5720 5720 5721 5721 5722 5722 5722 5721 5721 5721 5721 5721 5721 5721 5721 5722 5722 5722 5722 5722 5723 5723 5723 5723 5723 5723 5723 5722 5722 5722 5722 5722 5722 5722 5721 5721 5721 5721 5721 5721 5720 5720 5720 5720 5720 5719 5719 5718 5718 5716
5703 5703 5704 5705 5706 5707 5708 5708 5709 5710 5711 5710 5710 5710 5711 5711 5712 5712 5712 5713 5713 5714 5714 5715 5715 5715 5714 5714 5715 5715 5715 5715 5716 5716 5716 5716 5716 5717 5717 5717 5717 5717 5717 5717 5717 5716 5717 5717 5717 5717 5717 5717 5717 5717 5717 5717 5718 5718 5718 5718 5718 5718 5718 5718 5718 5718 5718 5717 5717 5716 5716 5715 5715 5715 5715 5715 5715 5714 5714 5714 5713 5713 5713 5712 5711
5698 5698 5699 5700 5701 5701 5702 5702 5703 5703 5704 5705 5705 5705 5705 5706 5706 5707 5708 5708 5708 5709 5709 5710 5710 5710 5710 5710 5710 5710 5711 5711 5711 5711 5712 5712 5712 5712 5713 5713 5712 5712 5712 5712 5712 5712 5712 5712 5712 5711 5711 5711 5711 5711 5711 5711 5711 5711 5712 5712 5713 5713 5713 5713 5712 5712 5712 5712 5711 5711 5710 5709 5709 5709 5709 5708 5708 5708 5707 5707 5707 5706 5706 5706 5706
5692 5693 5693 5694 5694 5695 5695 5696 5696 5697 5697 5698 5699 5700 5700 5700 5701 5701 5702 5702 5703 5703 5704 5704 5705 5706 5706 5706 5705 5705 5706 5706 5706 5706 5707 5707 5708 5708 5708 5707 5707 5707 5707 5706 5706 5706 5706 5706 5706 5706 5706 5706 5706 5705 5705 5705 5705 5705 5705 5705 5706 5706 5706 5706 5706 5706 5706 5706 5705 5705 5704 5703 5702 5701 5701 5701 5701 5700 5700 5699 5699 5699 5698 5698 5699
5686 5686 5686 5687 5687 5688 5688 5689 5689 5690 5691 5691 5693 5694 5694 5694 5695 5695 5696 5697 5697 5698 5698 5699 5699 5699 5700 5700 5700 5700 5700 5701 5701 5701 5701 5702 5702 5702 5702 5702 5702 5702 5701 5701 5701 5701 5701 5700 5700 5700 5700 5700 5699 5699 5698 5698 5698 5697 5697 5698 5698 5698 5698 5698 5698 5698 5699 5699 5698 5698 5697 5695 5694 5694 5693 5693 5692 5692 5692 5691 5690 5690 5690 5690 5691
5678 5679 5679 5680 5680 5681 5681 5682 5683 5684 5684 5685 5686 5687 5688 5689 5689 5690 5690 5691 5691 5692 5692 5692 5692 5692 5692 5693 5693 5694 5695 5695 5695 5696 5696 5696 5696 5696 5696 5696 5696 5696 5696 5696 5696 5695 5695 5695 5694 5694 5693 5693 5693 5692 5692 5691 5690 5690 5690 5690 5690 5690 5690 5690 5690 5690 5690 5690 5691 5690 5689 5687 5686 5686 5686 5685 5684 5684 5683 5683 5682 5682 5682 5682 5682
5673 5673 5673 5673 5674 5674 5675 5676 5676 5677 5678 5678 5679 5680 5681 5681 5682 5683 5683 5684 5684 5684 5685 5685 5685 5685 5686 5686 5687 5687 5688 5689 5689 5690 5690 5690 5690 5690 5690 5690 5690 5690 5689 5689 5689 5689 5689 5689 5688 5688 5687 5686 5686 5685 5685 5684 5684 5683 5683 5683 5682 5682 5682 5681 5681 5682 5682 5682 5682 5681 5680 5679 5679 5679 5678 5677 5676 5675 5675 5675 5674 5674 5674 5674 5673
5668 5668 5668 5668 5668 5668 5668 5668 5669 5669 5670 5670 5671 5672 5672 5673 5674 5675 5675 5676 5676 5677 5677 5678 5678 5678 5679 5679 5680 5681 5681 5682 5682 5683 5683 5683 5683 5683 5683 5683 5683 5683 5683 5682 5682 5682 5682 5682 5682 5681 5681 5680 5679 5679 5678 5678 5678 5677 5676 5676 5675 5675 5674 5674 5674 5674 5674 5674 5673 5673 5672 5672 5671 5670 5669 5668 5668 5667 5667 5666 5666 5665 5666 5666 5665
5663 5663 5663 5663 5663 5662 5662 5662 5662 5662 5663 5663 5664 5665 5665 5666 5666 5667 5668 5668 5669 5669 5670 5670 5671 5671 5671 5672 5672 5673 5674 5675 5675 5676 5676 5676 5676 5677 5677 5677 5676 5676 5676 5676 5675 5675 5675 5675 5674 5674 5674 5673 5673 5672 5672 5672 5671 5670 5670 5669 5669 5668 5667 5667 5667 5666 5666 5665 5665 5665 5664 5664 5663 5662 5661 5660 5659 5658 5657 5657 5656 5656 5656 5656 5656
5658 5658 5658 5658 5657 5657 5657 5657 5657 5657 5657 5657 5658 5659 5659 5660 5660 5661 5661 5662 5662 5662 5663 5663 5664 5664 5665 5665 5666 5666 5667 5668 5668 5669 5669 5669 5669 5670 5670 5670 5669 5669 5669 5669 5669 5668 5668 5668 5667 5667 5666 5666 5666 5665 5665 5665 5664 5664 5663 5663 5662 5661 5661 5660 5660 5659 5658 5658 5657 5657 5656 5655 5654 5653 5652 5650 5649 5648 5647 5647 5646 5646 5645 5645 5644
5652 5652 5652 5652 5651 5651 5651 5651 5651 5652 5652 5652 5653 5653 5654 5654 5654 5655 5655 5656 5656 5657 5657 5657 5658 5658 5659 5659 5660 5660 5661 5661 5662 5662 5662 5662 5662 5662 5662 5662 5662 5662 5661 5661 5661 5661 5661 5660 5660 5660 5659 5659 5659 5658 5658 5658 5657 5657 5656 5656 5655 5655 5654 5653 5652 5652 5651 5650 5649 5648 5647 5646 5645 5643 5642 5641 5639 5638 5637 5637 5636 5635 5635 5634 5633
5643 5644 5645 5645 5645 5645 5645 5645 5645 5646 5647 5646 5646 5647 5647 5648 5648 5649 5649 5649 5649 5650 5651 5651 5652 5652 5653 5653 5654 5654 5655 5655 5656 5656 5656 5656 5655 5655 5655 5655 5655 5654 5654 5654 5654 5654 5653 5653 5653 5653 5653 5652 5652 5651 5651 5651 5650 5650 5649 5649 5648 5647 5647 5646 5645 5644 5643 5642 5641 5640 5638 5637 5636 5634 5633 5632 5630 5629 5627 5626 5625 5624 5624 5623 5623
5633 5635 5636 5637 5637 5637 5638 5638 5639 5640 5640 5640 5639 5640 5641 5641 5642 5642 5642 5642 5642 5643 5644 5644 5645 5645 5646 5646 5647 5647 5648 5648 5648 5648 5648 5648 5648 5648 5648 5648 5648 5647 5647 5647 5647 5647 5646 5646 5646 5646 5646 5645 5645 5644 5644 5644 5643 5643 5642 5642 5641 5640 5639 5639 5638 5637 5636 5634 5633 5632 5630 5629 5628 5626 5625 5623 5621 5620 5618 5617 5616 5614 5613 5613 5612
5624 5625 5627 5628 5629 5630 5630 5631 5632 5633 5633 5632 5633 5633 5634 5634 5635 5635 5635 5635 5635 5636 5637 5637 5638 5639 5639 5640 5640 5640 5640 5641 5641 5641 5640 5641 5641 5641 5641 5641 5640 5640 5640 5640 5640 5640 5640 5639 5639 5639 5639 5638 5638 5637 5637 5637 5636 5636 5635 5635 5634 5633 5632 5631 5631 5630 5628 5627 5626 5625 5623 5622 5620 5619 5617 5615 5613 5612 5610 5609 5607 5605 5604 5603 5602
5615 5616 5617 5619 5620 5621 5622 5623 5623 5624 5624 5625 5625 5626 5626 5627 5627 5628 5628 5628 5628 5629 5630 5631 5631 5632 5632 5633 5633 5634 5634 5634 5634 5634 5633 5633 5634 5634 5634 5633 5633 5633 5633 5633 5633 5633 5633 5633 5633 5632 5632 5631 5631 5630 5630 5629 5629 5629 5628 5628 5627 5626 5625 5624 5623 5622 5621 5620 5619 5618 5616 5615 5613 5612 5610 5608 5606 5605 5603 5601 5599 5597 5596 5595 5593
5607 5608 5609 5610 5610 5612 5613 5613 5614 5615 5615 5616 5617 5617 5618 5619 5619 5620 5620 5620 5621 5621 5622 5623 5624 5625 5626 5626 5626 5627 5627 5627 5627 5627 5627 5627 5627 5627 5627 5627 5626 5626 5626 5626 5626 5626 5626 5626 5626 5625 5625 5624 5624 5624 5624 5623 5623 5622 5622 5621 5620 5620 5619 5618 5617 5616 5615 5614 5613 5611 5610 5608 5606 5605 5603 5601 5599 5597 5595 5593 5591 5590 5588 5587 5585
5599 5600 5601 5601 5602 5603 5604 5604 5605 5606 5606 5607 5607 5608 5609 5610 5611 5611 5612 5612 5612 5613 5614 5615 5617 5618 5618 5619 5619 5619 5620 5620 5620 5620 5620 5620 5620 5620 5620 5620 5620 5620 5620 5620 5619 5619 5619 5619 5618 5618 5618 5618 5618 5618 5617 5617 5616 5616 5615 5614 5614 5613 5612 5611 5610 5610 5608 5607 5606 5605 5603 5601 5599 5597 5595 5594 5592 5589 5587 5585 5584 5582 5580 5578 5577
5590 5591 5592 5593 5593 5594 5595 5596 5596 5597 5597 5598 5599 5599 5600 5601 5602 5602 5603 5603 5604 5605 5606 5607 5608 5610 5610 5611 5611 5612 5612 5612 5612 5613 5613 5613 5613 5613 5613 5613 5613 5613 5613 5613 5613 5612 5612 5612 5612 5612 5612 5611 5611 5611 5611 5610 5610 5609 5609 5608 5608 5607 5606 5605 5604 5603 5602 5601 5599 5598 5596 5594 5592 5590 5587 5586 5584 5581 5579 5577 5576 5574 5571 5570 5569
5579 5580 5582 5582 5583 5584 5585 5586 5587 5588 5589 5590 5591 5591 5592 5593 5594 5594 5594 5595 5595 5596 5598 5599 5600 5601 5602 5603 5604 5605 5605 5605 5605 5606 5606 5606 5606 5606 5606 5606 5606 5607 5607 5606 5606 5606 5606 5606 5606 5606 5606 5605 5605 5605 5605 5604 5604 5603 5603 5602 5602 5601 5600 5599 5598 5597 5596 5594 5593 5591 5589 5587 5585 5582 5580 5578 5576 5573 5571 5569 5568 5566 5564 5562 5561
5569 5569 5570 5571 5572 5573 5574 5575 5576 5578 5579 5581 5582 5584 5584 5585 5586 5587 5587 5587 5588 5589 5590 5591 5592 5593 5593 5595 5596 5597 5598 5598 5598 5598 5599 5599 5599 5599 5600 5600 5600 5600 5600 5600 5600 5600 5601 5600 5600 5600 5600 5600 5600 5600 5599 5599 5598 5598 5597 5597 5596 5595 5595 5594 5592 5591 5590 5588 5586 5584 5582 5580 5578 5576 5573 5571 5569 5566 5563 5561 5559 5557 5555 5554 5553
5559 5559 5560 5560 5561 5563 5564 5565 5566 5567 5569 5571 5572 5574 5576 5577 5578 5579 5579 5580 5581 5582 5582 5583 5583 5584 5585 5587 5588 5590 5591 5591 5591 5591 5592 5592 5592 5593 5593 5594 5594 5594 5593 5593 5594 5595 5595 5595 5595 5595 5595 5595 5595 5594 5594 5594 5593 5593 5592 5591 5591 5590 5589 5588 5587 5585 5583 5581 5580 5578 5576 5574 5572 5569 5567 5564 5561 5558 5555 5552 5551 5549 5547 5546 5544
5548 5549 5550 5550 5552 5553 5553 5554 5556 5557 5558 5560 5562 5564 5565 5567 5569 5571 5571 5572 5573 5574 5575 5575 5576 5576 5578 5580 5581 5582 5583 5583 5583 5585 5586 5586 5586 5587 5587 5588 5587 5587 5587 5588 5589 5589 5589 5589 5589 5590 5590 5590 5590 5589 5589 5589 5588 5587 5587 5586 5586 5585 5584 5582 5581 5579 5578 5576 5574 5572 5570 5568 5565 5562 5559 5556 5553 5549 5547 5545 5543 5541 5539 5538 5536
5537 5539 5540 5540 5542 5542 5543 5544 5546 5547 5549 5550 5552 5554 5556 5557 5559 5562 5563 5564 5565 5566 5567 5568 5568 5570 5571 5572 5573 5575 5576 5576 5576 5578 5579 5579 5580 5581 5581 5581 5581 5581 5582 5583 5584 5584 5584 5584 5584 5585 5585 5585 5585 5584 5584 5584 5583 5582 5582 5581 5581 5580 5579 5577 5576 5574 5573 5571 5568 5566 5563 5560 5557 5554 5550 5547 5545 5542 5540 5538 5536 5534 5532 5530 5529
5527 5529 5529 5530 5531 5532 5533 5535 5536 5538 5540 5541 5543 5545 5547 5549 5551 5553 5555 5556 5557 5558 5559 5560 5561 5563 5564 5565 5566 5568 5568 5569 5569 5571 5572 5573 5573 5574 5574 5575 5575 5576 5577 5578 5578 5578 5579 5579 5579 5580 5580 5580 5580 5580 5579 5579 5579 5578 5577 5577 5576 5575 5574 5573 5571 5570 5568 5565 5562 5559 5556 5553 5549 5546 5543 5541 5539 5537 5535 5533 5531 5529 5527 5525 5524
5518 5518 5519 5520 5521 5522 5524 5525 5527 5528 5530 5532 5534 5536 5538 5541 5543 5545 5546 5548 5549 5550 5552 5553 5555 5556 5557 5559 5560 5560 5561 5562 5563 5564 5565 5566 5567 5568 5568 5569 5570 5571 5572 5572 5573 5573 5574 5574 5575 5575 5575 5575 5575 5575 5575 5575 5574 5574 5574 5573 5572 5572 5570 5569 5567 5565 5563 5560 5556 5553 5549 5546 5543 5540 5538 5536 5534 5532 5531 5529 5527 5525 5524 5522 5521
5509 5509 5510 5511 5512 5514 5515 5516 5517 5519 5521 5523 5525 5528 5530 5533 5535 5537 5538 5540 5542 5544 5545 5546 5548 5549 5551 5552 5553 5553 5554 5555 5556 5558 5559 5560 5561 5562 5562 5563 5564 5565 5566 5567 5567 5568 5569 5569 5570 5570 5570 5571 5571 5571 5571 5571 5571 5571 5571 5570 5569 5568 5567 5565 5563 5560 5557 5553 5550 5546 5543 5541 5539 5536 5534 5532 5531 5529 5527 5526 5524 5522 5521 5519 5518
5502 5502 5503 5504 5505 5505 5507 5508 5509 5510 5512 5514 5517 5520 5522 5525 5527 5529 5531 5533 5535 5537 5539 5540 5541 5543 5544 5545 5546 5547 5548 5549 5550 5552 5553 5554 5555 5556 5557 5558 5559 5560 5561 5562 5562 5563 5564 5565 5565 5566 5566 5566 5567 5567 5567 5568 5568 5568 5568 5567 5566 5565 5563 5561 5558 5555 5552 5548 5544 5542 5539 5538 5536 5534 5532 5530 5528 5527 5525 5523 5522 5520 5518 5517 5515
5497 5497 5498 5498 5498 5499 5500 5500 5501 5503 5504 5506 5509 5511 5514 5516 5519 5521 5524 5526 5528 5530 5532 5533 5535 5536 5538 5539 5540 5541 5542 5543 5545 5546 5547 5549 5550 5550 5552 5553 5554 5555 5556 5557 5558 5559 5559 5560 5561 5561 5562 5563 5563 5564 5565 5565 5566 5566 5565 5565 5563 5562 5560 5558 5555 5551 5547 5543 5540 5538 5536 5535 5533 5531 5529 5528 5526 5525 5523 5521 5520 5518 5516 5514 5512
5493 5493 5493 5493 5493 5493 5494 5494 5495 5496 5497 5498 5501 5504 5506 5509 5511 5514 5517 5519 5522 5524 5526 5527 5529 5530 5532 5533 5534 5535 5536 5538 5539 5541 5542 5543 5544 5545 5546 5548 5549 5550 5551 5552 5553 5554 5555 5556 5557 5558 5559 5560 5561 5562 5562 5563 5563 5563 5563 5562 5561 5559 5557 5555 5551 5547 5542 5539 5537 5535 5533 5532 5530 5529 5527 5526 5524 5523 5521 5519 5517 5515 5513 5511 5509
5489 5489 5489 5489 5489 5489 5489 5489 5489 5489 5490 5492 5494 5496 5499 5502 5505 5508 5510 5513 5515 5518 5519 5521 5523 5525 5526 5527 5528 5530 5531 5533 5534 5536 5537 5538 5539 5540 5542 5543 5544 5545 5547 5548 5549 5550 5552 5553 5554 5555 5556 5557 5558 5559 5560 5561 5561 5560 5560 5559 5558 5557 5555 5552 5547 5542 5538 5536 5534 5533 5531 5529 5528 5527 5525 5524 5523 5521 5519 5517 5515 5513 5511 5509 5507
5486 5486 5486 5485 5484 5484 5483 5483 5483 5484 5485 5486 5488 5490 5493 5496 5498 5501 5504 5507 5509 5511 5513 5515 5517 5519 5520 5522 5523 5525 5527 5528 5530 5531 5532 5533 5535 5536 5537 5539 5540 5542 5543 5545 5546 5548 5549 5550 5552 5553 5554 5555 5556 5557 5558 5558 5558 5558 5557 5557 5556 5554 5552 5549 5544 5539 5536 5533 5532 5530 5529 5528 5526 5525 5524 5523 5521 5520 5518 5515 5513 5511 5509 5506 5504
5483 5483 5482 5481 5480 5479 5478 5478 5478 5479 5480 5481 5483 5485 5488 5490 5493 5496 5499 5501 5503 5506 5508 5510 5512 5513 5516 5518 5519 5521 5522 5524 5525 5527 5528 5530 5531 5533 5534 5536 5537 5539 5540 5542 5544 5546 5547 5549 5550 5551 5552 5553 5554 5555 5556 5556 5556 5556 5555 5554 5553 5552 5549 5546 5542 5537 5534 5531 5530 5528 5527 5526 5524 5523 5522 5521 5520 5518 5516 5514 5511 5509 5507 5504 5502
5480 5480 5480 5478 5477 5476 5475 5475 5475 5475 5476 5478 5479 5481 5484 5486 5489 5492 5494 5496 5499 5501 5503 5505 5507 5509 5512 5514 5515 5517 5519 5520 5522 5524 5525 5527 5529 5531 5532 5534 5536 5537 5539 5541 5542 5544 5545 5547 5548 5549 5550 5551 5552 5553 5554 5554 5554 5554 5553 5552 5551 5549 5547 5544 5540 5536 5533 5530 5528 5526 5525 5524 5522 5521 5520 5519 5518 5516 5514 5512 5510 5507 5505 5502 5500
5479 5479 5478 5477 5475 5474 5473 5473 5473 5473 5474 5476 5477 5479 5481 5484 5487 5489 5491 5493 5495 5497 5500 5502 5504 5506 5508 5510 5512 5514 5516 5518 5520 5521 5523 5526 5528 5529 5531 5533 5534 5536 5538 5539 5541 5542 5544 5545 5546 5547 5548 5549 5550 5551 5551 5552 5552 5551 5551 5550 5548 5546 5544 5542 5538 5535 5532 5529 5526 5525 5523 5522 5521 5520 5519 5518 5517 5515 5513 5511 5508 5506 5504 5501 5498
5478 5477 5477 5476 5475 5473 5472 5472 5473 5473 5475 5476 5477 5479 5481 5483 5486 5488 5490 5492 5494 5496 5498 5500 5502 5504 5506 5509 5511 5512 5515 5517 5518 5520 5522 5525 5527 5528 5530 5531 5533 5535 5536 5538 5539 5541 5542 5543 5544 5545 5546 5547 5548 5549 5549 5549 5549 5549 5548 5547 5546 5544 5542 5540 5537 5534 5531 5528 5525 5523 5521 5520 5519 5518 5517 5516 5515 5513 5511 5509 5507 5505 5503 5500 5497
5477 5477 5476 5476 5475 5474 5474 5474 5474 5475 5476 5477 5479 5480 5482 5484 5486 5488 5490 5492 5494 5495 5497 5499 5501 5503 5506 5508 5510 5512 5514 5516 5518 5520 5522 5524 5525 5527 5529 5530 5532 5534 5535 5537 5538 5539 5541 5542 5543 5544 5544 5545 5546 5546 5547 5547 5547 5547 5546 5545 5544 5542 5540 5538 5536 5534 5531 5528 5525 5522 5520 5518 5517 5516 5515 5514 5513 5511 5510 5508 5506 5504 5502 5499 5496
5477 5477 5477 5477 5476 5476 5476 5476 5476 5477 5478 5479 5481 5482 5484 5486 5488 5489 5491 5493 5494 5495 5497 5499 5501 5504 5506 5508 5510 5512 5514 5515 5517 5519 5521 5523 5524 5526 5528 5530 5531 5533 5534 5536 5537 5538 5539 5540 5541 5542 5542 5543 5544 5544 5545 5545 5545 5545 5544 5543 5542 5540 5539 5537 5535 5533 5530 5528 5525 5522 5520 5517 5515 5514 5513 5512 5511 5510 5508 5506 5505 5503 5501 5498 5495
5477 5478 5478 5478 5478 5478 5478 5478 5478 5479 5480 5482 5483 5484 5486 5488 5489 5490 5491 5493 5495 5497 5499 5500 5502 5504 5506 5508 5509 5511 5513 5515 5516 5518 5520 5522 5524 5526 5527 5529 5530 5532 5533 5534 5535 5536 5537 5538 5539 5540 5540 5541 5542 5542 5543 5543 5543 5543 5542 5541 5540 5539 5537 5535 5534 5532 5530 5527 5525 5522 5520 5517 5515 5513 5511 5510 5509 5508 5507 5505 5504 5502 5500 5498 5495
5478 5479 5479 5479 5479 5479 5479 5480 5480 5481 5482 5483 5484 5485 5487 5489 5490 5491 5492 5494 5496 5498 5500 5501 5503 5504 5506 5507 5509 5511 5513 5514 5516 5518 5520 5522 5524 5525 5527 5528 5530 5531 5532 5533 5534 5535 5535 5536 5537 5538 5538 5539 5540 5540 5541 5541 5541 5541 5540 5539 5538 5537 5535 5534 5532 5530 5528 5526 5524 5522 5520 5517 5515 5512 5510 5509 5507 5506 5505 5504 5503 5501 5499 5497 5495
5479 5480 5480 5480 5480 5480 5480 5481 5482 5482 5483 5484 5485 5486 5488 5490 5491 5492 5494 5495 5497 5499 5500 5501 5503 5504 5506 5507 5509 5511 5512 5514 5516 5518 5520 5522 5523 5525 5526 5527 5528 5529 5530 5531 5532 5533 5534 5534 5535 5536 5536 5537 5537 5538 5539 5539 5539 5539 5538 5537 5536 5535 5534 5532 5530 5529 5527 5525 5523 5521 5519 5517 5515 5512 5510 5508 5506 5504 5503 5502 5501 5500 5498 5496 5494
5481 5481 5481 5481 5481 5482 5482 5483 5483 5484 5485 5486 5487 5488 5489 5490 5491 5493 5494 5496 5497 5499 5500 5501 5503 5504 5506 5507 5509 5511 5513 5514 5516 5518 5520 5521 5523 5524 5525 5526 5527 5528 5529 5529 5530 5531 5532 5532 5533 5533 5534 5534 5535 5536 5536 5536 5536 5536 5535 5535 5534 5533 5532 5530 5529 5527 5526 5524 5522 5520 5518 5516 5514 5512 5510 5507 5505 5503 5502 5501 5500 5499 5497 5496 5494
5483 5483 5483 5483 5483 5483 5484 5484 5485 5485 5486 5487 5488 5489 5490 5491 5492 5493 5494 5496 5497 5498 5500 5501 5503 5504 5506 5507 5509 5511 5513 5515 5516 5518 5520 5521 5522 5523 5524 5525 5525 5526 5527 5527 5528 5529 5529 5530 5530 5531 5531 5532 5533 5533 5533 5533 5533 5533 5533 5532 5531 5530 5529 5528 5527 5526 5525 5523 5521 5519 5517 5515 5513 5511 5509 5507 5505 5503 5501 5499 5498 5497 5496 5495 5494
5484 5484 5484 5484 5485 5485 5485 5485 5486 5486 5487 5487 5488 5489 5490 5491 5492 5493 5494 5495 5497 5498 5499 5501 5502 5504 5506 5507 5509 5511 5513 5515 5516 5517 5519 5520 5521 5521 5522 5523 5524 5524 5525 5525 5526 5527 5527 5528 5528 5529 5529 5530 5530 5530 5531 5531 5530 5530 5530 5529 5529 5528 5527 5526 5525 5524 5523 5522 5520 5518 5517 5515 5513 5511 5509 5507 5505 5503 5501 5499 5497 5496 5495 5494 5493